Printer-friendly version

IAU Minor Planet Center

Minor Planet Center

MPEC 2006-G42 : 2006 GT3

The following Minor Planet Electronic Circular may be linked-to from your own Web pages, but must not otherwise be redistributed electronically.


Read MPEC 2006-G41 Read MPEC 2006-G43


M.P.E.C. 2006-G42                                Issued 2006 Apr. 12, 13:19 UT

     The Minor Planet Electronic Circulars contain information on unusual
         minor planets and routine data on comets.  They are published
   on behalf of Commission 20 of the International Astronomical Union by the
          Minor Planet Center, Smithsonian Astrophysical Observatory,
                          Cambridge, MA 02138, U.S.A.

                  Supported in part by the Brinson Foundation
                  Supported in part by the TABASGO Foundation
             Prepared using the Tamkin Foundation Computer Network

                              MPC@CFA.HARVARD.EDU
          URL http://cfa-www.harvard.edu/iau/mpc.html  ISSN 1523-6714

                                   2006 GT3

Observations:
     K06G03T* C2006 04 07.16007 10 47 07.62 +08 11 47.5          19.0 V EG042G96
     K06G03T  C2006 04 07.16556 10 47 06.97 +08 11 35.8          20.1 V EG042G96
     K06G03T  C2006 04 07.17105 10 47 06.36 +08 11 24.5          19.9 V EG042G96
     K06G03T  C2006 04 07.17646 10 47 05.78 +08 11 13.5          19.9 V EG042G96
     K06G03T  C2006 04 07.21440 10 47 01.63 +08 09 56.0          19.3 V EG042G96
     K06G03T  C2006 04 07.21840 10 47 01.19 +08 09 47.8          19.7 V EG042G96
     K06G03T  C2006 04 07.22243 10 47 00.76 +08 09 39.7          20.0 V EG042G96
     K06G03T  C2006 04 07.22651 10 47 00.31 +08 09 31.3          19.4 V EG042G96
     K06G03T  C2006 04 08.19237 10 45 30.13 +07 36 03.7          19.4 V EG042G96
     K06G03T  C2006 04 08.19698 10 45 29.66 +07 35 54.0          19.5 V EG042G96
     K06G03T  C2006 04 08.20170 10 45 29.16 +07 35 43.9          19.4 V EG042G96
     K06G03T  C2006 04 08.20633 10 45 28.65 +07 35 34.3          19.4 V EG042G96

Observer details:
G96 Mt. Lemmon Survey.  Observer R. E. Hill.  Measurers E. C. Beshore,
    E. J. Christensen, G. J. Garradd, A. R. Gibbs, A. D. Grauer, R. E. Hill,
    R. A. Kowalski, S. M. Larson, R. H. McNaught.  1.5-m reflector + CCD.

Orbital elements:
2006 GT3                                                 Earth MOID = 0.1269 AU
Epoch 2006 Mar. 6.0 TT = JDT 2453800.5                  MPC
M 322.83660              (2000.0)            P               Q
n   0.46865377     Peri.  223.50670     -0.57881029     +0.81495037
a   1.6414764      Node    11.23054     -0.70166297     -0.47967284
e   0.3286681      Incl.    8.53019     -0.41550899     -0.32522279
P   2.10           H   21.2           G   0.15           U   9
Residuals in seconds of arc
060407 G96  0.3+  0.7+    060407 G96  0.3-  0.3+    060408 G96  0.4-  0.4+
060407 G96  0.4-  0.2+    060407 G96  0.3-  0.3+    060408 G96  0.1-  0.4+
060407 G96  0.6-  0.1+    060407 G96  0.1-  0.5+    060408 G96  0.1-  0.2+
060407 G96  0.4-  0.1+    060407 G96  0.2-  0.4+    060408 G96  0.3-  0.4+

Ephemeris:
2006 GT3                 a,e,i = 1.65, 0.33, 9                   q = 1.1008
Date    TT    R. A. (2000) Decl.     Delta      r     Elong.  Phase     V
2006 04 05    10 50.67   +09 23.5    0.224    1.191   145.4    28.5    19.6
2006 04 15    10 36.39   +03 17.5    0.210    1.160   134.4    38.1    19.7
2006 04 25    10 28.72   -04 02.1    0.203    1.134   124.9    46.7    19.8
2006 05 05    10 28.79   -12 09.2    0.201    1.116   117.4    53.4    19.9
2006 05 15    10 36.87   -20 41.9    0.203    1.104   112.5    57.8    20.0
2006 05 25    10 53.28   -29 16.9    0.207    1.101   109.9    59.9    20.1
2006 06 04    11 19.42   -37 30.0    0.216    1.106   109.6    59.8    20.2
2006 06 14    11 57.27   -44 50.1    0.228    1.118   111.1    57.9    20.3
2006 06 24    12 48.53   -50 34.1    0.246    1.138   113.9    54.7    20.4
2006 07 04    13 52.09   -53 59.5    0.270    1.165   117.2    50.9    20.6
2006 07 14    15 00.62   -54 45.3    0.302    1.197   120.3    47.2    20.8
2006 07 24    16 04.16   -53 11.5    0.343    1.234   122.5    44.0    21.0
2006 08 03    16 57.55   -50 09.0    0.394    1.275   123.5    41.6    21.3
2006 08 13    17 40.89   -46 27.4    0.456    1.319   123.1    40.1    21.7

Timothy B. Spahr             (C) Copyright 2006 MPC           M.P.E.C. 2006-G42

Read MPEC 2006-G41 Read MPEC 2006-G43


Our Web policy. Index to the CBAT/MPC/ICQ pages.


Valid HTML 4.01!